Location: Munkebjergskolens Observatorium
(55.3864°N, 10.3987°E)
Time: 03:17:32
(UTC+02:00)

QB50P2 - Pass Details

Date: 02 April 2023
Orbit: 581 x 596 km, 98.0° (Epoch: 31 May)

Event Time Altitude Azimuth Distance (km) Brightness Sun altitude
Rises 03:29:23 0° 14° (NNE) 2,842 ? -24.4°
Reaches altitude 10° 03:31:34 10° 14° (NNE) 1,933 ? -24.2°
Enters shadow 03:35:36 80° 332° (NNW) 606 ? -23.9°
